Regional Weather Roundup
Issued by NWS Albany, NY

Home | Current Version | Previous Version | Text Only | Print | Product List | Glossary On
Versions: 1 2 3 4 5 6 7 8 9 10 11 12 13 14 15 16 17 18 19 20 21 22 23 24 25 26 27 28 29 30 31 32 33 34 35 36 37 38 39 40 41 42 43 44 45 46 47 48 49
000
ASUS41 KALY 190310
RWRALY

NEW YORK STATE HOURLY WEATHER ROUNDUP
NATIONAL WEATHER SERVICE ALBANY NY
1000 PM EST THU DEC 18 2014

NOTE: "FAIR" INDICATES FEW OR NO CLOUDS BELOW 12,000 FEET WITH NO
SIGNIFICANT WEATHER AND/OR NO OBSTRUCTIONS TO VISIBILITY.

NYZ032-033-038>043-046>054-057>066-NYZ062>081-190400-
EAST


CITY           SKY/WX    TMP DP  RH WIND       PRES   REMARKS
ALBANY         CLOUDY    33  26  75 NW10      29.94F WCI  25
GLENS FALLS    CLOUDY    33  23  66 VRB6      29.92F WCI  28
POUGHKEEPSIE   CLOUDY    37  26  64 CALM      29.94S
NEWBURGH       MOCLDY    34  27  75 NW12G24   29.95S WCI  25
MONTGOMERY     CLOUDY    36  24  62 NW9G18    29.93F WCI  29
WHITE PLAINS   CLEAR     35  26  69 NW13      29.93R WCI  26
ISLIP          PTCLDY    35  26  69 W8        29.94R WCI  29
NEW YORK CITY  PTCLDY    38  27  64 W14       29.97R WCI  30
CENTRAL PARK   CLEAR     38  25  59 W8        29.99R WCI  32
$$

NYZ005>009-017-018-044>046-055-056-190400-
CENTRAL


CITY           SKY/WX    TMP DP  RH WIND       PRES   REMARKS
FULTON         CLOUDY    32  25  75 NW12      30.01S WCI  23
SYRACUSE       CLOUDY    30  28  92 W9        30.01S WCI  22
ROME           CLOUDY    29  28  96 NW8       30.00S WCI  21
ELMIRA         CLOUDY    33  27  78 W3        30.00F
BINGHAMTON     CLOUDY    28  26  92 NW7       29.94S WCI  21
MONTICELLO     CLOUDY    30  25  80 NW9       29.93S WCI  22
$$

NYZ026>034-041>043-190400-
NORTH


CITY           SKY/WX    TMP DP  RH WIND       PRES   REMARKS
WATERTOWN      CLOUDY    28  23  81 N7        30.02S HAZE    WCI  21
FORT DRUM      NOT AVBL
MASSENA        CLOUDY    27  22  81 W9        30.00S WCI  18
SARANAC LAKE   CLOUDY    21  18  88 W7        29.87F WCI  12
PLATTSBURGH    CLOUDY    30  22  72 NW6       29.94S WCI  24
$$

NYZ001>004-010>016-019>021-190400-
WEST


CITY           SKY/WX    TMP DP  RH WIND       PRES   REMARKS
NIAGARA FALLS  CLOUDY    28  23  81 NW10      30.08S WCI  19
BUFFALO        CLOUDY    29  24  82 W9        30.07S WCI  20
DUNKIRK        CLOUDY    31  25  78 W12       30.09S WCI  22
JAMESTOWN      CLOUDY    27  25  93 NW8       30.03S WCI  18
WELLSVILLE     CLOUDY    27  23  85 NW16      29.97F WCI  15
ROCHESTER      FRZ DRZL  29  26  89 NW9       30.05S WCI  20
PENN YAN       FLURRIES  31  26  82 W8        30.01F WCI  23
$$

             KEY
       WCI = WIND CHILL INDEX
       VSB = VISIBILITY
       HX  = HEAT INDEX
$$


USA.gov is the U.S. government's official web portal to all federal, state and local government web resources and services.